VHHFO RPMR-WAMM

Flight info

Callsign VHHFO
Flight time N/A
Altitude 25000
Route ANIMU R342 PEDNO/N0317F260 R342 BONDA DCT MNO
Aircraft B350/L-SBGRW/S

Departure

Time 2026-04-30 04:03
Airport General Santos International Airport (RPMR)

Arrival

Time N/A
Airport Sam Ratulangi International Airport (WAMM)
Time Latitude Longitude Altitude Speed Heading
2026-04-30 03:50 6.05577 125.09994 485 ft 0 kts 83°
2026-04-30 03:59 6.05572 125.09998 485 ft 3 kts 192°
2026-04-30 03:59 6.05577 125.09944 485 ft 10 kts 285°
2026-04-30 03:59 6.05631 125.09900 483 ft 10 kts 336°
2026-04-30 04:00 6.05698 125.09888 483 ft 10 kts 355°
2026-04-30 04:00 6.05772 125.09884 482 ft 11 kts 358°
2026-04-30 04:00 6.05838 125.09839 486 ft 15 kts 278°
2026-04-30 04:00 6.05835 125.09714 489 ft 21 kts 278°
2026-04-30 04:01 6.05888 125.09607 489 ft 18 kts 354°
2026-04-30 04:01 6.06008 125.09596 488 ft 19 kts 355°
2026-04-30 04:01 6.06172 125.09579 490 ft 28 kts 353°
2026-04-30 04:01 6.06385 125.09558 497 ft 34 kts 351°
2026-04-30 04:02 6.06634 125.09523 502 ft 40 kts 352°
2026-04-30 04:02 6.06938 125.09486 502 ft 44 kts 353°
2026-04-30 04:02 6.07184 125.09440 505 ft 20 kts 342°
2026-04-30 04:02 6.07193 125.09457 506 ft 12 kts 175°
2026-04-30 04:03 6.06844 125.09496 502 ft 86 kts 172°
2026-04-30 04:03 6.06070 125.09593 495 ft 134 kts 171°
2026-04-30 04:03 6.05052 125.09711 653 ft 156 kts 173°
2026-04-30 04:03 6.03954 125.09795 1148 ft 159 kts 174°
2026-04-30 04:04 6.02828 125.09927 1483 ft 173 kts 170°
2026-04-30 04:04 6.01628 125.10112 1993 ft 175 kts 171°
2026-04-30 04:04 6.00409 125.10277 2580 ft 178 kts 171°
2026-04-30 04:04 5.99175 125.10424 3199 ft 180 kts 173°
2026-04-30 04:05 5.97928 125.10577 3651 ft 181 kts 170°
2026-04-30 04:05 5.96680 125.10756 4175 ft 182 kts 171°
2026-04-30 04:05 5.95409 125.10900 4688 ft 184 kts 173°
2026-04-30 04:05 5.94132 125.11041 5154 ft 185 kts 172°
2026-04-30 04:06 5.92850 125.11191 5600 ft 186 kts 172°
2026-04-30 04:06 5.91560 125.11347 6049 ft 187 kts 172°
2026-04-30 04:06 5.90280 125.11502 6485 ft 188 kts 172°
2026-04-30 04:06 5.88976 125.11660 6921 ft 189 kts 172°
2026-04-30 04:07 5.87666 125.11818 7358 ft 190 kts 172°
2026-04-30 04:07 5.86345 125.11978 7789 ft 192 kts 172°
2026-04-30 04:07 5.85015 125.12139 8209 ft 193 kts 172°
2026-04-30 04:08 5.82336 125.12461 9068 ft 195 kts 172°
2026-04-30 04:08 5.80984 125.12624 9486 ft 196 kts 173°
2026-04-30 04:08 5.79634 125.12786 9922 ft 195 kts 173°
2026-04-30 04:08 5.78283 125.12948 10378 ft 192 kts 173°
2026-04-30 04:09 5.77007 125.13099 10970 ft 183 kts 173°
2026-04-30 04:09 5.75775 125.13246 11541 ft 175 kts 173°
2026-04-30 04:09 5.74568 125.13390 11998 ft 175 kts 173°
2026-04-30 04:09 5.73361 125.13532 12429 ft 175 kts 173°
2026-04-30 04:10 5.72150 125.13674 12867 ft 175 kts 173°
2026-04-30 04:10 5.70940 125.13817 13292 ft 175 kts 173°
2026-04-30 04:10 5.69724 125.13960 13706 ft 176 kts 173°